sat.trackr.live / text

‹ back to catalog

2025-108A

NORAD 64087 · 2025-108A

PAYLOAD ACTIVE UNKNOWN

§ Identity

Operator
Country
PRC
Launch date
2025-05-21
Launch site
JSC
Launch vehicle
Mass (kg)
RCS (m²)

External: N2YO · Heavens-Above · Gunter

§ Orbital elements

Epoch: 2026-09-21T22:36:31.497408Z

Period
94.93 min
Inclination
97.4692°
Eccentricity
0.0002070
Mean motion
15.16965737 rev/d
Perigee alt
513.6 km
Apogee alt
516.4 km
Semi-major
6,893.2 km
B*
1.5214e-4
RAAN
338.2597°
Arg perigee
0.7250°
Mean anomaly
359.3986°
Rev number
7,398

§ Raw data

2025-108A1 64087U 25108A   26264.94203122  .00002936  00000+0  15214-3 0  99992 64087  97.4692 338.2597 0002070   0.7250 359.3986 15.16965737 73984

JSON: /api/v1/satellites/64087 · /tle

For live sub-satellite position, see the globe view (requires WebGL).

§ Visibility from observer

Set your observer location to see the next 7 days of passes ≥ 10°. The values pass through the URL so the page stays shareable.

No JS? Fill the form by hand. The geolocation button needs JavaScript.